Vertical_Velocity
-0 -3 -0 0 2 -2 -3 -2 -2 -2 1 0 -0 0 -1 -1 -1 0 0 1 -1 1 -0 0 -0 -2 1 -6 0 4 1 -0 3 -1 -1 -0 1 -1 -0 1 0 4 -3 1 -1 2 1
-1 -1 -0 0 -3 4 -1 -3 -1 -1 -1 -1 0 0 0 -1 -1 -1 0 -1 -1 5 1 1 0 0 -3 -11 8 2 -4 3 1 0 2 0 2 2 -1 -0 1 0 1 -0 -3 -4 -2
1 -2 -0 -0 -2 -1 2 -2 -2 -1 -2 0 -2 -0 1 0 0 -0 -1 0 -2 2 1 -1 -2 -1 -25 9 6 5 7 -6 -8 0 -2 -0 -2 -1 2 -1 1 -1 1 -2 -3 1 1
-2 -0 -1 -1 -1 0 0 -2 -0 -2 -2 -1 -0 -2 -0 -0 -1 2 -0 1 -2 1 0 1 1 -4 -2 8 1 -5 -7 -3 6 -0 -1 3 4 2 3 3 -5 0 -2 -1 1 -3 -3
1 0 -2 1 1 1 -3 3 -3 0 -3 -2 1 -1 -0 -1 -1 2 2 0 -0 -0 1 1 -1 -4 1 0 -25 -4 2 -8 -3 1 4 3 -2 2 -12 -1 -2 -4 1 -1 -8 1 0
1 -1 -1 2 3 4 0 -1 -2 -1 -0 -2 -1 -0 -2 1 1 1 1 2 2 2 2 -3 4 -8 -14 0 -1 1 -1 -8 -5 6 -7 -8 -6 -3 -4 -7 -1 -1 -1 -2 1 -0 -5
-2 -1 -3 -2 1 -3 -2 4 -4 -2 -1 -1 -1 1 -1 1 0 -4 0 1 1 -12 -17 -2 8 -2 2 3 -9 -17 2 -20 -18 -18 -3 -2 -14 1 3 1 -1 -0 0 0 -1 -0 -6
-1 -3 -0 -1 -0 -1 5 0 -2 -3 -1 -1 -2 1 1 -0 -0 -4 2 2 -1 -5 -5 6 -5 -7 2 11 -9 -7 -14 -12 -12 -0 -2 -9 -0 1 -0 -1 -2 -1 -0 -2 -3 -2 3
-2 -1 -0 -1 -4 -1 1 2 2 -3 -1 -3 -2 0 2 -2 -1 -2 -5 -3 -1 1 -7 3 3 -4 5 -6 6 3 -11 3 -2 -4 -0 -4 -0 0 -3 -1 -4 -2 -1 -1 -0 -2 -1
2 -0 -0 -3 -0 -4 2 2 1 -3 -1 -2 -2 -2 1 -3 1 -1 -3 -1 -0 0 -8 -9 -7 -6 -18 1 -5 12 3 -1 -6 2 0 1 -2 0 -1 -0 1 1 -0 2 1 -0 -2
-1 1 -2 -1 -2 1 0 0 2 -2 -1 -1 -2 -4 -1 -0 0 -2 -0 -1 -1 -2 -5 -3 -2 5 4 -17 3 -9 8 -5 0 1 -11 -5 -1 -1 -2 5 2 -10 2 2 2 2 -1
0 0 0 1 -1 -5 4 -1 -0 -0 -1 -1 -3 -2 -3 2 1 0 -1 -2 1 -9 -9 -5 1 -2 -5 -1 -0 4 -11 -3 3 -2 -3 1 1 -2 1 -0 0 -1 -0 -0 0 -1 -4
0 0 -3 1 -3 -6 2 -0 0 -2 -1 0 -1 -2 -5 0 -1 -0 -0 -0 -9 -10 -3 -2 -1 -1 -0 -0 -4 -2 -3 -6 -2 -5 -4 -4 -3 -2 -0 -4 -5 -2 -4 -4 -6 -5 -3
3 1 -2 -2 0 -6 3 2 -1 -1 -5 1 -0 -2 -3 -0 -2 1 -0 -7 -6 -0 -0 0 -0 -0 -2 -0 1 -0 -1 -1 -4 -2 -1 0 -9 -1 -4 -0 2 -1 -1 -0 2 -0 -5
0 0 -2 1 2 -3 5 -1 -5 2 -6 0 -0 -2 2 1 -0 2 -3 -7 -1 -1 -1 -0 -2 -3 -0 -2 -2 -4 -1 1 2 0 -7 -1 -4 -8 1 -0 1 -7 -2 -1 2 -1 0
1 -2 -2 -2 1 -2 6 -3 -5 1 -4 -3 -0 -1 1 1 1 2 -12 -1 -1 -0 -1 -2 -1 -2 -0 -0 -5 -5 -1 2 -1 1 1 -5 -7 -2 -4 -4 -4 -4 -2 -7 -4 -1 -2
3 2 -5 0 -4 5 4 -5 -3 -0 -1 -4 0 -1 -1 1 2 -7 -5 -0 0 2 -3 -3 -1 -1 0 -1 -0 0 1 4 -1 -3 0 -0 -5 -13 -4 -2 1 -5 -4 -5 -3 -0 2
2 2 -2 -4 -2 0 7 -5 -2 -2 1 -3 -2 -4 -2 -1 -15 1 -1 -4 -1 1 0 -1 -4 -1 -1 -0 -0 -0 -1 -0 1 3 -1 -2 -3 -0 2 3 -1 -1 -1 -2 -4 -6 -0
3 -2 -5 -7 -2 -3 4 -2 -3 -2 1 -4 -2 -2 -1 0 -5 0 2 1 -1 -0 1 -0 -0 -2 -0 -1 -8 -0 0 3 -1 -1 0 -5 -4 -4 -4 -2 0 -2 0 -0 -1 -1 -2
0 3 1 1 -4 2 3 -3 -2 -2 1 -4 -2 -5 -3 -4 1 -6 -1 1 1 1 -1 -0 -1 -2 -2 -0 -0 -3 0 2 0 -0 3 -1 -1 -7 -7 -4 -2 -2 -1 -0 -0 -1 -2
2 -1 2 -3 -0 -1 2 -2 -0 -2 2 -4 -1 -1 -0 -1 -2 -0 -3 -2 0 1 -0 -0 -0 -2 -4 -2 -0 0 0 -2 -0 -1 -1 -6 -2 -1 0 0 -1 -0 0 -0 0 -2 -4
-4 1 2 -3 -2 -2 -0 -1 2 -2 2 -3 -4 -7 0 -0 0 -3 -1 -1 -2 2 -5 1 -3 0 -1 -4 -8 -4 -3 -2 -3 -4 -1 -1 -3 -1 -2 -0 -0 -0 -0 0 -0 -0 -0
-0 -4 -4 -5 1 0 -0 3 0 -0 0 -2 1 1 2 2 1 -4 -4 -1 -1 -4 0 -1 -6 -3 -0 -2 -2 -0 0 -1 -2 -4 -0 -3 -2 -3 -4 0 -1 -8 -5 -1 -1 -0 -6
0 -2 -7 -2 -2 1 -0 3 -1 -0 -1 -0 -2 -1 -3 -2 -2 -2 -0 -1 -1 -1 -8 0 0 -5 7 -2 -2 -1 -1 -1 -1 0 -0 -2 -1 -1 -2 -4 -9 -16 -1 -2 -1 -2 0
-4 0 -6 -1 -0 -5 -2 4 -1 -0 -1 -1 1 -2 -3 -1 -2 2 2 -1 1 3 -2 -3 1 2 -3 -3 -4 -3 -4 -7 -2 -0 -0 -1 -3 -2 -5 -1 -12 -5 -1 -4 -7 -11 -2
-1 2 -3 -0 -2 -5 1 4 1 -2 -1 1 1 1 -2 -16 -7 -1 -2 -1 -2 0 -3 2 5 4 1 -2 -2 -2 -2 -3 -3 -6 1 -1 -3 -8 -2 -3 -4 -9 -1 0 -3 -11 -2
-1 3 1 -2 -7 1 4 2 -1 -1 -1 1 -1 0 -2 -7 -1 -1 -3 -8 0 0 -3 1 -0 1 3 -0 -1 -2 -2 -5 -5 -1 -1 -1 -2 -4 -0 -2 -11 -4 -1 0 -19 -28 -3
5 4 2 -8 -5 5 3 0 -1 -1 -0 2 -1 -0 -2 -3 2 -1 -0 -4 -0 2 -4 2 -8 -1 0 -2 -2 -2 -2 -3 -3 -4 -4 -5 -6 -1 -2 -2 -13 -2 0 -11 -14 -1 -1
5 1 -0 -7 3 6 -0 -0 -2 -1 0 2 0 0 -1 -2 -3 0 0 -0 -1 1 -5 1 0 -2 -3 -4 -0 -1 0 1 -2 -4 -2 -11 -12 -10 -14 -17 -1 -6 -2 -0 -1 -0 -2
Height
1523 1521 1519 1517 1515 1514 1513 1512 1510 1509 1506 1503 1501 1498 1494 1491 1487 1483 1480 1477 1474 1471 1469 1469 1471 1473 1474 1477 1488 1486 1483 1480 1478 1476 1477 1477 1479 1480 1481 1479 1479 1479 1478 1479 1479 1477 1477
1523 1520 1518 1516 1515 1514 1513 1512 1510 1508 1506 1503 1501 1498 1494 1490 1487 1484 1480 1478 1476 1475 1473 1473 1474 1474 1475 1482 1490 1487 1482 1479 1477 1475 1475 1476 1477 1479 1479 1479 1480 1478 1477 1478 1477 1476 1475
1523 1520 1518 1517 1515 1514 1513 1511 1510 1508 1506 1503 1500 1498 1494 1490 1487 1484 1481 1479 1478 1478 1477 1477 1476 1475 1474 1492 1490 1487 1482 1479 1477 1475 1475 1475 1476 1477 1477 1477 1476 1476 1476 1475 1475 1473 1472
1522 1520 1517 1516 1516 1514 1513 1511 1509 1507 1505 1503 1500 1497 1494 1491 1487 1485 1482 1480 1480 1480 1479 1478 1478 1477 1487 1493 1490 1484 1480 1478 1476 1474 1473 1474 1475 1476 1478 1477 1476 1476 1476 1482 1481 1478 1476
1522 1519 1518 1516 1515 1515 1511 1510 1508 1507 1505 1503 1499 1496 1493 1491 1488 1485 1483 1481 1481 1481 1480 1480 1480 1480 1492 1493 1484 1486 1482 1478 1474 1472 1473 1475 1476 1479 1480 1481 1482 1490 1490 1489 1486 1485 1485
1521 1519 1517 1516 1515 1514 1511 1509 1508 1506 1504 1502 1499 1496 1493 1489 1488 1485 1483 1483 1481 1482 1481 1480 1484 1488 1496 1497 1493 1488 1485 1481 1475 1472 1474 1477 1480 1488 1493 1495 1510 1506 1501 1495 1492 1487 1492
1519 1518 1517 1515 1514 1513 1512 1508 1507 1506 1504 1500 1498 1494 1491 1488 1486 1484 1482 1483 1485 1486 1486 1491 1498 1497 1500 1499 1496 1491 1486 1485 1481 1478 1486 1487 1495 1504 1502 1500 1503 1505 1506 1507 1495 1488 1495
1518 1517 1516 1514 1513 1512 1510 1508 1505 1505 1503 1500 1497 1493 1490 1486 1485 1483 1482 1480 1480 1487 1495 1498 1498 1498 1498 1499 1495 1494 1491 1488 1487 1490 1488 1496 1503 1502 1500 1501 1502 1502 1511 1505 1495 1488 1486
1516 1514 1514 1514 1512 1511 1510 1508 1504 1502 1501 1498 1495 1492 1489 1485 1484 1483 1481 1481 1482 1484 1491 1499 1499 1498 1497 1498 1498 1496 1494 1493 1494 1497 1501 1505 1506 1501 1499 1503 1504 1504 1510 1502 1502 1490 1486
1514 1512 1511 1511 1511 1509 1509 1506 1503 1501 1499 1496 1494 1491 1488 1484 1485 1482 1482 1482 1483 1484 1495 1506 1501 1503 1499 1496 1500 1501 1498 1499 1501 1505 1503 1506 1505 1503 1504 1504 1510 1506 1496 1495 1491 1496 1494
1512 1511 1509 1509 1509 1508 1507 1505 1501 1499 1497 1495 1493 1490 1487 1485 1484 1483 1483 1481 1482 1486 1494 1508 1505 1506 1504 1502 1509 1507 1503 1501 1506 1508 1507 1513 1508 1506 1507 1511 1506 1503 1496 1493 1487 1487 1490
1510 1509 1507 1507 1506 1505 1504 1503 1500 1498 1496 1494 1491 1489 1487 1485 1483 1482 1480 1481 1485 1487 1518 1509 1507 1508 1506 1505 1507 1509 1507 1505 1508 1508 1508 1509 1506 1505 1506 1507 1503 1498 1494 1488 1483 1492 1520
1508 1506 1505 1505 1505 1504 1502 1500 1498 1496 1494 1492 1489 1488 1486 1484 1483 1481 1481 1483 1488 1496 1509 1511 1511 1510 1509 1510 1512 1510 1516 1518 1522 1521 1521 1515 1508 1505 1505 1506 1498 1497 1503 1507 1502 1502 1490
1505 1505 1503 1503 1503 1502 1499 1499 1495 1493 1492 1489 1487 1487 1486 1483 1482 1481 1481 1484 1487 1508 1512 1511 1511 1510 1513 1516 1516 1515 1517 1523 1525 1526 1529 1529 1519 1511 1508 1511 1508 1502 1501 1510 1497 1493 1499
1501 1501 1502 1500 1502 1498 1499 1497 1494 1491 1489 1487 1485 1485 1485 1483 1481 1480 1482 1502 1507 1511 1512 1513 1512 1516 1519 1518 1518 1518 1526 1531 1531 1531 1542 1542 1524 1511 1510 1509 1508 1502 1504 1504 1501 1495 1496
1498 1498 1498 1498 1499 1495 1497 1495 1492 1490 1486 1485 1484 1484 1484 1482 1481 1480 1486 1504 1510 1509 1510 1512 1516 1516 1522 1524 1522 1526 1528 1534 1531 1531 1530 1535 1545 1514 1510 1509 1510 1512 1514 1512 1510 1516 1511
1494 1493 1495 1496 1495 1493 1495 1493 1491 1488 1484 1483 1483 1482 1483 1482 1481 1481 1501 1506 1507 1509 1509 1513 1516 1519 1522 1526 1526 1529 1533 1534 1533 1531 1529 1530 1537 1521 1512 1523 1525 1518 1534 1531 1533 1527 1505
1490 1489 1490 1493 1492 1492 1492 1491 1488 1485 1482 1481 1482 1483 1482 1481 1484 1494 1503 1502 1506 1509 1510 1512 1515 1518 1521 1524 1528 1527 1532 1534 1533 1532 1535 1530 1537 1532 1526 1527 1526 1528 1542 1553 1543 1530 1530
1486 1486 1487 1488 1487 1489 1489 1488 1486 1483 1480 1480 1480 1481 1481 1479 1493 1501 1502 1503 1506 1509 1512 1513 1517 1515 1520 1525 1540 1529 1530 1534 1532 1533 1535 1533 1538 1545 1527 1534 1527 1534 1539 1543 1547 1546 1549
1482 1482 1483 1483 1484 1486 1486 1485 1483 1481 1478 1479 1481 1483 1482 1480 1486 1491 1500 1504 1507 1509 1513 1514 1519 1517 1522 1528 1529 1538 1530 1531 1531 1533 1531 1530 1546 1542 1546 1534 1541 1546 1539 1539 1540 1553 1556
1477 1478 1479 1479 1480 1482 1483 1481 1480 1477 1476 1478 1479 1482 1483 1489 1490 1491 1495 1501 1505 1509 1512 1514 1519 1519 1527 1540 1531 1530 1532 1532 1532 1533 1532 1536 1548 1540 1544 1546 1543 1545 1543 1542 1545 1547 1547
1471 1474 1474 1477 1478 1478 1479 1479 1476 1474 1473 1475 1476 1479 1484 1488 1490 1492 1498 1503 1502 1508 1511 1513 1519 1519 1522 1532 1529 1537 1536 1535 1537 1534 1538 1542 1549 1549 1554 1543 1542 1550 1546 1547 1543 1542 1549
1464 1467 1469 1472 1474 1475 1475 1475 1472 1470 1470 1471 1473 1476 1478 1489 1492 1495 1498 1498 1500 1504 1511 1510 1514 1519 1523 1523 1525 1527 1529 1531 1533 1538 1545 1553 1557 1560 1562 1542 1547 1560 1547 1544 1543 1544 1549
1459 1461 1463 1467 1470 1471 1472 1471 1467 1466 1467 1468 1469 1473 1476 1490 1488 1490 1492 1494 1499 1502 1508 1512 1514 1517 1522 1523 1526 1530 1530 1531 1533 1537 1539 1555 1561 1562 1562 1560 1569 1536 1540 1539 1541 1535 1536
1451 1454 1457 1462 1465 1467 1470 1467 1463 1462 1463 1464 1466 1469 1470 1486 1484 1489 1492 1494 1499 1503 1507 1510 1512 1514 1517 1522 1529 1538 1536 1536 1536 1537 1539 1540 1555 1564 1562 1571 1544 1535 1536 1540 1543 1531 1525
1444 1447 1452 1456 1461 1464 1465 1462 1459 1460 1460 1462 1463 1466 1468 1471 1481 1481 1489 1492 1498 1504 1508 1509 1511 1513 1517 1518 1527 1541 1534 1535 1542 1541 1540 1541 1545 1552 1579 1567 1555 1528 1530 1531 1534 1541 1515
1439 1443 1447 1450 1457 1461 1460 1458 1457 1458 1459 1460 1461 1463 1466 1468 1476 1479 1481 1486 1489 1495 1501 1505 1509 1513 1515 1521 1531 1531 1534 1540 1539 1541 1540 1551 1561 1557 1571 1574 1543 1524 1526 1531 1541 1525 1509
1435 1439 1441 1447 1454 1457 1455 1454 1455 1456 1457 1458 1459 1461 1464 1465 1472 1475 1477 1478 1483 1487 1493 1499 1507 1510 1513 1518 1515 1520 1530 1533 1538 1536 1537 1533 1548 1554 1576 1572 1540 1517 1527 1529 1506 1502 1504
1433 1435 1439 1445 1452 1451 1451 1452 1453 1454 1455 1456 1458 1459 1461 1464 1470 1473 1475 1478 1480 1482 1484 1489 1492 1491 1494 1504 1510 1514 1518 1530 1530 1531 1531 1540 1522 1527 1526 1516 1500 1500 1496 1498 1498 1499 1500